This demonstration page uses our WeatherBlox Daily Observations layout. Learn more.

Left ArrowRight Arrow

39.08367, -84.50855

Hourly Observations for April 6, 2015

Temp ( °F °C ) Dew Point ( °F °C ) Humidity (%) Winds ( mph kmh ) Pressure ( in mb ) Visibility ( mi km ) Precip ( " mm )
12:53 am 00:53 Clear 43 6.1 36 2.2 76 76 SSW 6 9 30.14 1021 10 16.0934 0 0
1:53 am 01:53 Clear 41 5 36 2.2 82 82 Calm 30.14 1021 10 16.0934 0 0
2:53 am 02:53 Clear 40 4.4 37 2.8 89 89 Calm 30.14 1021 10 16.0934 0 0
3:53 am 03:53 Clear 39 3.9 36 2.2 89 89 Calm 30.14 1021 10 16.0934 0 0
4:53 am 04:53 Cloudy 42 5.6 38 3.3 85 85 SSW 3 6 30.14 1021 10 16.0934 0 0
5:53 am 05:53 Cloudy 43 6.1 37 2.8 80 80 Calm 30.13 1020 10 16.0934 0 0
6:53 am 06:53 Cloudy with Light Rain 45 7.2 37 2.8 74 74 Calm 30.14 1021 10 16.0934 0 0.0254
7:53 am 07:53 Cloudy 45 7.2 41 5 86 86 Calm 30.15 1021 10 16.0934 0 0.0254
8:53 am 08:53 Cloudy 47 8.3 41 5 80 80 Calm 30.14 1021 10 16.0934 0 0
9:53 am 09:53 Cloudy 52 11.1 41 5 66 66 W 3 6 30.14 1021 10 16.0934 0 0
10:53 am 10:53 Cloudy 60 15.6 41 5 50 50 S 9 15 30.13 1020 10 16.0934 0 0
11:53 am 11:53 Cloudy 64 17.8 43 6.1 46 46 SW 12 19 30.12 1020 10 16.0934 0 0
12:53 pm 12:53 Cloudy 66 18.9 43 6.1 43 43 SSW 16 26 30.1 1019 10 16.0934 0 0.0254
1:53 pm 13:53 Cloudy 66 18.9 44 6.7 45 45 SW 15 24 30.09 1019 10 16.0934 0 0
2:53 pm 14:53 Cloudy 67 19.4 48 8.9 51 51 SSW 8 13 30.08 1019 10 16.0934 0 0
3:53 pm 15:53 Cloudy 68 20 49 9.4 51 51 S 13 20 30.05 1018 10 16.0934 0 0
4:53 pm 16:53 Cloudy with Rain 63 17.2 52 11.1 68 68 SW 8 13 30.05 1018 4 6.43736 0.02 0.508
5:45 pm 17:45 Cloudy with Light Thunderstorms 60 15.6 56 13.3 86 86 WNW 6 9 30.03 1017 9 14.48406 0.03 0.762
5:53 pm 17:53 Cloudy with Heavy Thunderstorms 59 15 56 13.3 90 90 ESE 5 7 30.04 1017 5 8.0467 0.12 3.048
6:09 pm 18:09 Cloudy 59 15 58 14.4 96 96 Calm 30.03 1017 8 12.87472 0.01 0.254
6:53 pm 18:53 Cloudy 58 14.4 58 14.4 100 100 Calm 30.05 1018 8 12.87472 0.01 0.254
7:53 pm 19:53 Sunny 57 13.9 57 13.9 100 100 N 3 6 30.04 1017 8 12.87472 0 0
8:53 pm 20:53 Mostly Cloudy 55 12.8 55 12.8 100 100 Calm 30.05 1018 8 12.87472 0 0
9:53 pm 21:53 Mostly Cloudy with Patchy Fog 54 12.2 54 12.2 100 100 Calm 30.06 1018 4 6.43736 0 0
10:04 pm 22:04 Mostly Cloudy with Patchy Fog 53 11.7 53 11.7 100 100 Calm 30.06 1018 2 3.21868 0 0
10:53 pm 22:53 Mostly Cloudy with Patchy Fog 52 11.1 52 11.1 100 100 Calm 30.07 1018 2 3.21868 0 0
11:00 pm 23:00 Mostly Cloudy with Fog 52 11 52 11 100 100 Calm 30.09 1019 0.25 0.402335 0 0
11:53 pm 23:53 Cloudy with Fog 51 10.6 51 10.6 100 100 Calm 30.08 1019 0.25 0.402335 0 0

Powered by AerisWeather